QPF
0.00 0.00 0.00 0.00 0.00 0.00 0.00 0.00 0.00 0.00 0.00 0.00 0.00 0.00 0.00 0.00 0.00 0.00 0.00 0.00 0.00 0.00 0.00 0.00 0.00 0.00 0.00 0.00 0.00 0.00 0.00 0.00 0.00 0.00 0.00 0.00 0.00 0.00 0.00 0.00 0.00 0.00 0.00
0.00 0.00 0.00 0.00 0.00 0.00 0.00 0.00 0.00 0.00 0.00 0.00 0.00 0.00 0.00 0.00 0.00 0.00 0.00 0.00 0.00 0.00 0.00 0.00 0.00 0.00 0.00 0.00 0.00 0.00 0.00 0.00 0.00 0.00 0.00 0.00 0.00 0.00 0.00 0.00 0.00 0.00 0.00
0.00 0.00 0.00 0.00 0.00 0.00 0.00 0.00 0.00 0.00 0.00 0.00 0.00 0.00 0.00 0.00 0.01 0.01 0.00 0.00 0.00 0.00 0.00 0.00 0.00 0.00 0.00 0.00 0.00 0.00 0.00 0.00 0.00 0.00 0.00 0.02 0.04 0.02 0.00 0.00 0.00 0.00 0.00
0.00 0.00 0.00 0.00 0.00 0.00 0.00 0.00 0.00 0.00 0.00 0.00 0.00 0.00 0.00 0.00 0.00 0.00 0.00 0.00 0.00 0.00 0.00 0.00 0.00 0.00 0.00 0.00 0.00 0.00 0.00 0.00 0.00 0.00 0.00 0.00 0.01 0.06 0.06 0.02 0.00 0.00 0.00
0.00 0.00 0.00 0.00 0.00 0.00 0.00 0.00 0.00 0.00 0.00 0.00 0.00 0.00 0.00 0.00 0.00 0.00 0.00 0.01 0.00 0.01 0.00 0.00 0.01 0.00 0.00 0.00 0.00 0.00 0.00 0.00 0.00 0.01 0.00 0.00 0.00 0.00 0.01 0.02 0.02 0.00 0.00
0.00 0.00 0.00 0.00 0.00 0.00 0.00 0.00 0.00 0.00 0.00 0.00 0.00 0.00 0.00 0.00 0.00 0.00 0.00 0.00 0.00 0.01 0.01 0.01 0.01 0.00 0.00 0.00 0.00 0.00 0.00 0.00 0.01 0.02 0.02 0.03 0.02 0.01 0.04 0.03 0.01 0.03 0.02
0.00 0.00 0.00 0.00 0.00 0.00 0.00 0.00 0.00 0.00 0.00 0.00 0.00 0.00 0.00 0.00 0.00 0.00 0.00 0.00 0.00 0.00 0.01 0.01 0.00 0.00 0.00 0.00 0.01 0.02 0.02 0.03 0.05 0.03 0.04 0.05 0.03 0.02 0.06 0.06 0.03 0.02 0.02
0.00 0.00 0.00 0.00 0.00 0.00 0.00 0.00 0.00 0.00 0.00 0.00 0.00 0.00 0.00 0.00 0.00 0.00 0.00 0.00 0.00 0.00 0.00 0.00 0.00 0.01 0.00 0.01 0.06 0.05 0.03 0.03 0.04 0.01 0.01 0.02 0.02 0.04 0.04 0.03 0.04 0.02 0.00
0.00 0.00 0.00 0.00 0.00 0.00 0.00 0.00 0.00 0.00 0.00 0.00 0.00 0.00 0.00 0.00 0.00 0.00 0.00 0.00 0.00 0.00 0.00 0.00 0.00 0.00 0.00 0.00 0.02 0.02 0.01 0.01 0.03 0.03 0.03 0.04 0.03 0.04 0.05 0.05 0.04 0.03 0.01
0.00 0.00 0.00 0.00 0.00 0.00 0.00 0.00 0.00 0.00 0.00 0.00 0.00 0.00 0.00 0.00 0.00 0.00 0.00 0.00 0.00 0.00 0.00 0.00 0.00 0.01 0.01 0.00 0.00 0.00 0.00 0.01 0.01 0.02 0.01 0.01 0.01 0.01 0.01 0.02 0.01 0.00 0.00
0.00 0.00 0.00 0.00 0.00 0.00 0.00 0.00 0.00 0.00 0.00 0.00 0.00 0.00 0.00 0.00 0.00 0.00 0.00 0.00 0.00 0.00 0.00 0.00 0.00 0.00 0.00 0.00 0.00 0.00 0.00 0.00 0.00 0.00 0.00 0.00 0.00 0.00 0.00 0.00 0.00 0.00 0.00
0.00 0.00 0.00 0.00 0.00 0.00 0.00 0.00 0.00 0.00 0.00 0.00 0.00 0.00 0.00 0.00 0.00 0.00 0.00 0.00 0.00 0.00 0.00 0.00 0.00 0.00 0.00 0.00 0.00 0.00 0.00 0.00 0.00 0.00 0.00 0.00 0.00 0.00 0.00 0.00 0.00 0.00 0.00
0.00 0.00 0.00 0.00 0.00 0.00 0.00 0.00 0.00 0.00 0.00 0.00 0.00 0.00 0.00 0.00 0.00 0.00 0.00 0.00 0.00 0.00 0.00 0.00 0.00 0.00 0.00 0.00 0.00 0.00 0.00 0.01 0.01 0.02 0.02 0.01 0.01 0.00 0.00 0.00 0.00 0.00 0.00
0.00 0.00 0.00 0.00 0.00 0.00 0.00 0.00 0.00 0.00 0.00 0.00 0.00 0.00 0.00 0.00 0.00 0.00 0.00 0.00 0.00 0.00 0.00 0.00 0.00 0.00 0.00 0.00 0.00 0.00 0.00 0.00 0.01 0.02 0.02 0.02 0.01 0.01 0.01 0.01 0.01 0.00 0.00
0.00 0.00 0.00 0.00 0.00 0.00 0.00 0.00 0.00 0.00 0.00 0.00 0.00 0.00 0.00 0.00 0.00 0.00 0.00 0.00 0.00 0.00 0.00 0.00 0.00 0.00 0.00 0.00 0.01 0.03 0.02 0.02 0.02 0.01 0.01 0.01 0.01 0.01 0.01 0.01 0.01 0.01 0.00
0.00 0.00 0.00 0.00 0.00 0.00 0.00 0.00 0.00 0.00 0.00 0.00 0.00 0.00 0.00 0.00 0.00 0.00 0.00 0.00 0.00 0.00 0.00 0.00 0.00 0.00 0.00 0.01 0.03 0.01 0.01 0.01 0.01 0.00 0.00 0.00 0.00 0.00 0.00 0.00 0.00 0.00 0.00
0.00 0.00 0.00 0.00 0.00 0.00 0.00 0.00 0.00 0.00 0.00 0.00 0.00 0.00 0.00 0.00 0.00 0.00 0.00 0.00 0.00 0.00 0.00 0.00 0.01 0.01 0.00 0.01 0.01 0.00 0.00 0.00 0.00 0.00 0.00 0.00 0.00 0.00 0.00 0.00 0.00 0.00 0.00
0.00 0.00 0.00 0.00 0.00 0.00 0.00 0.00 0.00 0.00 0.00 0.00 0.00 0.00 0.00 0.00 0.00 0.00 0.00 0.00 0.00 0.01 0.01 0.01 0.01 0.01 0.00 0.01 0.00 0.00 0.00 0.00 0.00 0.00 0.00 0.00 0.00 0.00 0.00 0.00 0.00 0.00 0.00
0.00 0.00 0.00 0.00 0.00 0.00 0.00 0.00 0.00 0.00 0.00 0.00 0.00 0.00 0.00 0.00 0.00 0.00 0.00 0.00 0.00 0.00 0.00 0.00 0.00 0.00 0.00 0.00 0.00 0.00 0.00 0.00 0.00 0.00 0.00 0.00 0.00 0.00 0.00 0.00 0.00 0.00 0.00
0.00 0.00 0.00 0.00 0.00 0.00 0.00 0.00 0.00 0.00 0.00 0.00 0.00 0.00 0.00 0.00 0.00 0.00 0.00 0.00 0.00 0.00 0.00 0.00 0.00 0.00 0.00 0.00 0.00 0.00 0.00 0.00 0.00 0.00 0.00 0.00 0.00 0.00 0.00 0.00 0.00 0.00 0.00
0.00 0.00 0.00 0.00 0.00 0.00 0.00 0.00 0.00 0.00 0.00 0.00 0.00 0.00 0.00 0.00 0.00 0.00 0.00 0.00 0.00 0.00 0.00 0.00 0.00 0.00 0.00 0.00 0.00 0.00 0.00 0.00 0.00 0.00 0.00 0.00 0.00 0.00 0.00 0.00 0.00 0.00 0.00
0.00 0.00 0.00 0.00 0.00 0.00 0.00 0.00 0.00 0.00 0.00 0.00 0.00 0.00 0.00 0.00 0.00 0.00 0.00 0.00 0.00 0.00 0.00 0.00 0.00 0.00 0.00 0.00 0.00 0.00 0.00 0.00 0.00 0.00 0.00 0.00 0.00 0.00 0.00 0.00 0.00 0.00 0.00
0.00 0.00 0.00 0.00 0.00 0.00 0.00 0.00 0.00 0.00 0.00 0.00 0.00 0.00 0.00 0.00 0.00 0.00 0.00 0.00 0.00 0.00 0.00 0.00 0.00 0.00 0.00 0.00 0.00 0.00 0.00 0.00 0.00 0.00 0.00 0.00 0.00 0.00 0.00 0.00 0.00 0.00 0.00
0.00 0.00 0.00 0.00 0.00 0.00 0.00 0.00 0.00 0.00 0.00 0.00 0.00 0.00 0.00 0.00 0.00 0.00 0.00 0.00 0.00 0.00 0.00 0.00 0.00 0.00 0.00 0.00 0.00 0.00 0.00 0.00 0.00 0.00 0.00 0.00 0.00 0.00 0.00 0.00 0.00 0.01 0.00
0.00 0.00 0.00 0.00 0.00 0.00 0.00 0.00 0.00 0.00 0.00 0.00 0.00 0.00 0.00 0.00 0.00 0.00 0.00 0.00 0.00 0.00 0.00 0.00 0.00 0.00 0.00 0.00 0.00 0.00 0.00 0.00 0.00 0.00 0.00 0.00 0.00 0.00 0.00 0.00 0.00 0.00 0.00
0.00 0.00 0.00 0.00 0.00 0.00 0.00 0.00 0.00 0.00 0.00 0.00 0.00 0.00 0.00 0.00 0.00 0.00 0.00 0.00 0.00 0.00 0.00 0.00 0.00 0.00 0.00 0.00 0.00 0.00 0.00 0.00 0.00 0.00 0.00 0.00 0.00 0.00 0.00 0.00 0.00 0.00 0.00
MSLP
1000.95 1003.20 1004.58 1005.84 1006.81 1007.59 1008.18 1008.58 1008.98 1009.33 1009.46 1009.32 1009.26 1009.22 1009.46 1010.28 1011.34 1012.46 1013.16 1014.19 1015.16 1015.82 1016.15 1016.95 1017.31 1017.47 1017.64 1018.35 1018.67 1019.08 1019.25 1019.69 1019.88 1020.12 1020.71 1020.87 1021.14 1021.23 1021.35 1021.70 1021.83 1021.85 1022.07
1000.77 1002.88 1004.39 1005.58 1006.72 1007.48 1008.07 1008.46 1008.65 1009.05 1009.44 1009.66 1009.71 1009.86 1010.52 1011.27 1012.04 1013.12 1014.10 1014.95 1015.66 1016.13 1016.57 1016.90 1017.29 1017.68 1017.88 1018.42 1018.95 1019.32 1019.51 1020.10 1020.41 1020.22 1020.02 1020.21 1020.72 1020.94 1021.01 1020.92 1021.19 1021.26 1021.43
1000.04 1002.08 1003.65 1005.10 1006.47 1007.24 1007.78 1008.33 1008.58 1009.05 1009.35 1010.10 1010.35 1010.69 1011.58 1012.38 1013.17 1014.05 1014.72 1015.30 1015.76 1016.12 1016.24 1016.56 1017.12 1017.55 1018.27 1018.61 1018.89 1019.36 1019.28 1019.91 1020.29 1020.06 1019.47 1019.49 1019.48 1019.61 1019.87 1020.46 1020.62 1020.61 1020.97
999.21 1001.09 1002.83 1004.14 1005.81 1006.61 1007.35 1008.11 1008.68 1009.14 1009.49 1009.77 1010.29 1010.90 1011.16 1012.12 1013.30 1013.89 1014.59 1015.21 1015.59 1015.50 1015.94 1016.55 1017.12 1017.45 1017.49 1018.10 1018.23 1018.87 1019.25 1019.18 1018.99 1019.56 1019.80 1019.61 1019.86 1019.55 1019.62 1019.59 1019.90 1020.26 1020.31
998.47 1000.16 1001.88 1003.25 1004.67 1006.20 1006.64 1007.67 1008.64 1009.16 1009.51 1009.90 1010.17 1010.76 1011.52 1012.23 1013.14 1014.01 1014.62 1014.82 1014.94 1015.18 1015.80 1015.97 1016.26 1017.05 1017.08 1017.79 1017.77 1018.65 1018.81 1018.80 1018.86 1018.70 1018.79 1019.47 1019.70 1019.80 1019.78 1019.21 1019.13 1019.13 1019.66
997.89 999.53 1001.14 1002.57 1003.84 1005.63 1006.53 1007.06 1008.10 1009.03 1009.55 1009.67 1010.14 1010.63 1011.24 1011.88 1012.79 1013.58 1014.16 1014.81 1015.18 1015.62 1015.83 1015.89 1016.01 1016.40 1016.98 1017.17 1017.62 1018.01 1018.26 1018.51 1018.59 1018.62 1018.67 1018.95 1019.00 1018.82 1018.94 1018.97 1018.95 1018.69 1018.89
997.42 998.86 1000.38 1001.88 1003.22 1004.63 1005.94 1006.60 1007.34 1008.44 1009.25 1009.57 1010.02 1010.54 1011.26 1011.56 1012.10 1012.86 1013.69 1014.45 1015.17 1015.69 1016.06 1016.20 1016.10 1016.36 1016.47 1016.78 1017.10 1017.50 1017.75 1018.02 1018.25 1018.33 1018.48 1018.67 1018.71 1018.54 1018.52 1018.59 1018.48 1018.26 1018.19
996.88 998.20 999.48 1000.78 1002.28 1003.55 1004.68 1005.74 1006.50 1007.24 1008.38 1009.28 1009.77 1010.29 1011.02 1011.49 1011.89 1012.24 1012.97 1013.68 1014.35 1014.93 1015.34 1015.69 1015.67 1015.78 1015.99 1016.40 1016.70 1016.99 1017.11 1017.62 1017.88 1017.87 1017.83 1018.02 1018.01 1018.19 1018.23 1018.06 1018.21 1018.11 1018.27
996.14 997.41 998.65 999.95 1001.25 1002.77 1003.58 1004.36 1005.33 1006.21 1007.12 1008.04 1009.20 1009.89 1010.49 1010.82 1011.22 1011.44 1012.00 1012.69 1013.30 1013.69 1014.24 1014.77 1015.06 1015.18 1015.31 1015.65 1015.91 1016.21 1016.56 1016.97 1016.99 1017.15 1017.33 1017.47 1017.53 1017.61 1017.61 1017.69 1017.93 1018.19 1017.89
995.62 996.76 997.68 999.21 1000.38 1001.82 1003.10 1004.20 1004.72 1005.12 1006.16 1006.96 1007.82 1008.66 1009.56 1010.05 1010.31 1010.59 1011.11 1011.52 1012.15 1012.68 1012.93 1013.54 1013.92 1014.22 1014.67 1015.04 1015.34 1015.66 1015.83 1016.12 1016.28 1016.33 1016.66 1016.80 1016.80 1016.88 1016.95 1017.23 1017.82 1018.13 1018.15
995.05 995.98 996.97 998.33 999.72 1000.82 1002.01 1003.35 1004.02 1004.48 1005.01 1006.02 1006.76 1007.53 1008.53 1009.19 1009.54 1009.86 1010.04 1010.68 1011.37 1011.81 1012.29 1012.75 1013.44 1013.82 1014.07 1014.36 1014.69 1014.81 1014.95 1015.11 1015.28 1015.44 1015.69 1015.78 1016.11 1016.31 1016.51 1016.44 1016.73 1017.00 1017.33
994.76 995.49 996.26 997.37 998.78 999.89 1000.84 1002.18 1003.24 1003.69 1004.21 1004.91 1005.80 1006.58 1007.25 1008.15 1008.85 1009.17 1009.70 1010.16 1010.55 1011.07 1011.56 1012.10 1012.43 1012.90 1013.22 1013.52 1013.72 1013.91 1014.00 1014.19 1014.32 1014.54 1015.11 1015.48 1015.65 1015.10 1015.25 1015.54 1015.92 1016.02 1016.23
994.67 995.28 995.87 996.60 997.75 998.96 999.92 1000.87 1002.09 1003.00 1003.64 1004.23 1004.83 1005.62 1006.13 1006.69 1007.47 1008.35 1009.03 1009.59 1010.21 1010.60 1011.07 1011.38 1011.68 1011.99 1012.34 1012.65 1012.83 1013.01 1013.15 1013.42 1013.67 1014.35 1014.97 1014.84 1014.59 1014.25 1014.43 1014.88 1015.12 1015.25 1015.18
994.66 995.00 995.52 996.04 996.80 997.99 998.99 999.88 1000.92 1001.97 1002.88 1003.60 1004.15 1004.80 1005.58 1006.06 1006.52 1007.22 1007.91 1008.67 1009.29 1009.87 1010.36 1010.71 1011.01 1011.37 1011.69 1011.86 1012.06 1012.16 1012.30 1012.82 1013.52 1014.09 1014.30 1014.22 1013.86 1013.75 1014.00 1014.27 1014.46 1014.70 1015.04
994.39 994.53 994.94 995.63 996.19 996.97 997.91 998.89 999.80 1000.89 1001.81 1002.64 1003.34 1003.94 1004.84 1005.64 1006.28 1006.76 1007.35 1007.95 1008.61 1009.20 1009.78 1010.21 1010.60 1011.05 1011.40 1011.58 1011.61 1011.82 1012.18 1012.45 1012.99 1014.41 1014.90 1015.41 1015.42 1015.14 1014.98 1014.79 1015.03 1015.30 1015.80
994.48 994.47 994.59 995.00 995.67 996.34 997.01 997.84 998.71 999.68 1000.67 1001.59 1002.36 1003.18 1004.01 1004.79 1005.59 1006.27 1006.87 1007.61 1008.26 1008.88 1009.57 1009.99 1010.39 1010.82 1012.27 1012.50 1012.33 1012.50 1012.96 1013.62 1014.25 1015.27 1016.07 1016.40 1016.63 1016.72 1016.59 1016.49 1016.63 1016.91 1017.18
994.37 994.19 994.41 994.64 995.00 995.58 996.35 997.08 998.08 999.06 999.85 1000.76 1001.51 1002.39 1003.30 1004.25 1005.01 1005.83 1006.64 1007.36 1007.92 1008.59 1010.18 1011.20 1011.91 1012.80 1013.42 1013.30 1013.37 1013.79 1014.41 1015.08 1015.85 1016.38 1016.90 1017.38 1017.73 1017.82 1017.93 1018.05 1018.04 1018.27 1018.58
994.82 994.48 994.54 994.55 994.55 995.03 995.60 996.48 997.41 998.54 999.64 1000.43 1001.20 1001.91 1002.69 1003.59 1004.69 1005.60 1006.63 1008.11 1009.20 1010.40 1011.52 1012.50 1013.25 1013.94 1014.75 1014.90 1014.91 1015.14 1015.73 1016.41 1017.15 1017.71 1018.20 1018.38 1018.67 1018.70 1018.74 1018.74 1018.98 1019.37 1019.65
995.43 995.16 995.10 994.92 994.89 994.64 995.33 996.23 997.05 998.43 999.59 1000.40 1001.05 1002.03 1002.98 1003.81 1005.23 1006.59 1007.99 1009.33 1010.22 1011.68 1012.94 1013.92 1014.63 1015.16 1015.90 1016.00 1015.97 1015.98 1016.78 1017.52 1018.14 1018.81 1019.16 1019.47 1019.97 1019.67 1019.42 1019.50 1019.68 1019.72 1019.94
997.21 996.31 996.00 995.44 995.49 995.37 995.65 996.63 997.35 998.45 1000.37 1001.34 1002.26 1003.21 1004.54 1005.56 1007.19 1008.35 1009.53 1010.83 1011.68 1012.81 1013.89 1014.86 1015.62 1016.18 1016.53 1016.85 1016.92 1017.08 1017.70 1018.37 1019.17 1019.65 1020.15 1020.36 1020.18 1020.61 1020.36 1020.14 1020.13 1020.13 1020.20
998.59 997.89 997.02 996.29 996.10 996.19 996.74 998.12 999.07 1000.55 1002.37 1003.00 1004.29 1005.55 1006.51 1007.46 1008.79 1009.89 1010.89 1011.89 1012.93 1013.90 1014.86 1015.55 1016.49 1016.88 1017.37 1017.73 1017.86 1018.11 1018.28 1019.03 1019.56 1020.10 1020.51 1020.88 1021.09 1021.20 1021.06 1021.00 1020.90 1021.16 1021.19
1000.30 999.14 998.10 997.91 997.91 998.11 999.15 1001.02 1001.94 1003.15 1003.67 1004.69 1005.85 1006.75 1007.64 1009.11 1010.01 1010.88 1011.79 1012.65 1013.62 1014.40 1015.68 1016.19 1017.43 1018.00 1018.31 1018.62 1018.80 1019.02 1019.28 1019.74 1020.03 1020.46 1020.91 1021.48 1021.56 1021.47 1021.48 1021.39 1021.57 1021.60 1021.43
1001.89 1001.39 1000.95 1000.85 1001.02 1001.35 1001.61 1002.80 1004.20 1004.62 1005.21 1005.95 1007.30 1007.90 1008.56 1010.01 1011.14 1012.11 1013.00 1013.43 1014.30 1015.18 1016.12 1016.85 1017.70 1018.82 1019.06 1019.34 1019.69 1019.88 1020.28 1020.52 1020.82 1021.33 1021.64 1021.67 1021.61 1021.55 1021.86 1021.83 1021.89 1021.86 1021.63
1003.59 1003.48 1003.18 1003.08 1003.23 1003.64 1003.77 1004.00 1005.24 1005.67 1006.00 1006.98 1008.21 1009.28 1009.80 1011.30 1012.20 1012.70 1013.97 1014.96 1015.27 1016.08 1016.99 1017.10 1018.38 1019.15 1019.45 1019.72 1020.14 1020.27 1020.68 1020.98 1021.05 1021.49 1021.63 1021.80 1021.74 1021.82 1021.94 1021.72 1021.87 1022.12 1022.33
1005.21 1005.33 1005.12 1004.82 1005.00 1005.25 1005.40 1005.64 1006.34 1006.50 1007.12 1008.27 1009.41 1010.59 1010.91 1012.01 1013.73 1014.43 1015.23 1016.61 1016.75 1017.03 1016.66 1017.96 1018.93 1020.13 1020.45 1021.08 1021.35 1021.17 1021.43 1021.57 1021.71 1021.51 1021.57 1021.77 1021.84 1021.92 1021.99 1022.16 1022.44 1022.60 1022.82
1006.93 1007.09 1006.93 1006.70 1006.38 1006.35 1006.81 1006.97 1007.33 1007.32 1007.91 1009.12 1010.78 1012.22 1011.80 1012.91 1015.48 1015.44 1016.64 1017.87 1017.84 1018.04 1018.51 1019.60 1020.25 1021.23 1021.71 1022.07 1022.04 1022.14 1022.26 1022.23 1022.07 1021.75 1022.08 1022.45 1022.72 1022.82 1022.80 1022.92 1023.07 1023.22 1023.44
Thickness
5703 5685 5674 5661 5652 5643 5637 5634 5631 5631 5632 5632 5630 5629 5628 5624 5619 5615 5613 5609 5606 5604 5605 5600 5600 5603 5604 5599 5598 5596 5597 5596 5598 5595 5590 5589 5588 5587 5587 5585 5585 5586 5585
5698 5683 5672 5661 5651 5643 5636 5633 5632 5630 5630 5630 5629 5628 5622 5616 5613 5607 5603 5599 5598 5597 5597 5598 5598 5597 5597 5594 5592 5591 5591 5589 5586 5586 5590 5586 5585 5586 5587 5588 5587 5587 5585
5699 5685 5675 5664 5652 5645 5639 5634 5632 5628 5628 5624 5621 5620 5614 5608 5603 5597 5595 5594 5594 5593 5596 5597 5593 5592 5588 5586 5588 5584 5587 5582 5582 5587 5591 5588 5588 5591 5592 5588 5587 5587 5583
5707 5692 5679 5671 5656 5650 5643 5635 5630 5626 5623 5624 5621 5615 5616 5609 5602 5598 5594 5591 5590 5594 5594 5591 5589 5588 5589 5587 5587 5585 5585 5587 5590 5588 5587 5589 5586 5585 5582 5589 5586 5583 5584
5709 5696 5684 5676 5667 5654 5650 5640 5630 5626 5623 5620 5619 5616 5611 5607 5602 5596 5591 5591 5593 5592 5589 5591 5592 5587 5589 5585 5589 5583 5585 5586 5588 5592 5591 5584 5583 5584 5581 5582 5584 5587 5582
5710 5700 5690 5680 5672 5658 5650 5645 5634 5625 5621 5621 5617 5614 5611 5608 5602 5596 5592 5588 5588 5587 5587 5588 5590 5586 5585 5588 5586 5586 5586 5587 5589 5590 5589 5585 5582 5585 5583 5581 5582 5581 5580
5710 5700 5690 5680 5673 5663 5654 5648 5641 5630 5623 5621 5618 5614 5609 5608 5604 5599 5592 5587 5584 5583 5582 5583 5587 5586 5588 5587 5587 5587 5587 5587 5587 5588 5589 5586 5584 5585 5585 5581 5581 5581 5583
5711 5703 5697 5689 5679 5669 5663 5656 5649 5642 5631 5623 5620 5617 5612 5609 5606 5603 5598 5593 5590 5587 5586 5586 5587 5587 5588 5587 5587 5588 5588 5586 5586 5588 5589 5585 5586 5584 5582 5581 5576 5574 5572
5712 5706 5701 5694 5686 5675 5670 5666 5659 5652 5644 5635 5625 5619 5616 5614 5611 5611 5607 5602 5598 5598 5594 5591 5590 5591 5592 5592 5593 5591 5590 5587 5589 5587 5586 5584 5583 5581 5581 5577 5572 5565 5565
5711 5707 5705 5695 5691 5681 5672 5665 5661 5658 5650 5644 5635 5629 5623 5620 5619 5617 5613 5611 5609 5606 5605 5601 5599 5598 5596 5594 5593 5591 5591 5588 5588 5589 5585 5583 5581 5579 5576 5570 5562 5557 5555
5711 5708 5706 5699 5692 5686 5677 5667 5663 5659 5655 5646 5642 5636 5628 5624 5622 5619 5620 5616 5612 5610 5608 5605 5600 5598 5597 5595 5593 5593 5593 5591 5590 5588 5585 5584 5579 5575 5572 5568 5563 5559 5553
5710 5708 5707 5702 5693 5687 5682 5671 5664 5662 5658 5653 5646 5640 5636 5630 5624 5622 5619 5618 5615 5613 5611 5607 5605 5602 5600 5597 5596 5595 5594 5592 5590 5589 5582 5579 5575 5576 5573 5568 5562 5557 5551
5704 5703 5703 5700 5694 5688 5683 5677 5669 5661 5659 5654 5651 5646 5643 5640 5633 5627 5623 5620 5616 5612 5609 5607 5605 5603 5601 5599 5598 5597 5596 5592 5589 5583 5575 5574 5573 5574 5570 5562 5556 5551 5548
5696 5697 5697 5697 5696 5690 5685 5680 5673 5667 5659 5655 5650 5647 5642 5639 5637 5633 5629 5623 5618 5613 5609 5607 5605 5603 5601 5600 5599 5598 5596 5590 5582 5575 5571 5570 5570 5569 5563 5556 5551 5545 5537
5693 5696 5696 5694 5694 5692 5689 5683 5678 5671 5664 5657 5652 5648 5642 5638 5635 5631 5627 5623 5619 5613 5609 5606 5604 5600 5598 5597 5597 5593 5588 5584 5578 5560 5554 5547 5544 5542 5539 5539 5533 5528 5519
5686 5691 5694 5694 5691 5690 5688 5684 5680 5674 5669 5660 5654 5650 5645 5639 5633 5628 5624 5619 5615 5611 5605 5602 5600 5596 5582 5577 5578 5576 5571 5563 5555 5543 5533 5527 5522 5518 5515 5512 5506 5499 5493
5681 5688 5689 5690 5690 5690 5688 5683 5678 5674 5670 5663 5658 5652 5645 5638 5633 5627 5620 5616 5612 5607 5593 5584 5577 5569 5563 5562 5560 5555 5548 5540 5530 5523 5515 5508 5502 5497 5491 5486 5481 5475 5467
5670 5676 5682 5685 5690 5690 5688 5684 5679 5671 5664 5659 5655 5652 5647 5640 5632 5626 5618 5603 5593 5582 5573 5565 5558 5551 5543 5541 5539 5535 5527 5518 5509 5501 5494 5488 5481 5477 5471 5467 5462 5452 5445
5661 5667 5671 5676 5681 5687 5684 5678 5673 5664 5657 5652 5649 5645 5640 5634 5621 5607 5595 5584 5575 5563 5553 5545 5539 5533 5525 5523 5521 5518 5508 5498 5490 5480 5473 5467 5458 5455 5452 5446 5438 5432 5425
5638 5649 5658 5666 5667 5672 5674 5669 5665 5660 5645 5638 5632 5626 5614 5606 5591 5582 5573 5564 5558 5548 5538 5529 5521 5514 5510 5505 5502 5497 5488 5479 5469 5461 5452 5445 5442 5432 5427 5423 5417 5412 5406
5617 5629 5640 5648 5653 5657 5656 5649 5645 5631 5616 5612 5603 5594 5587 5580 5569 5561 5554 5546 5537 5529 5520 5514 5504 5499 5492 5486 5482 5476 5470 5461 5452 5442 5433 5424 5417 5409 5404 5398 5394 5385 5378
5589 5606 5620 5625 5631 5632 5625 5608 5603 5597 5595 5589 5581 5573 5567 5557 5550 5544 5537 5530 5521 5514 5503 5497 5484 5477 5472 5465 5461 5455 5448 5440 5433 5424 5414 5402 5395 5390 5384 5378 5369 5362 5356
5564 5574 5581 5585 5588 5591 5592 5582 5574 5575 5572 5567 5558 5554 5551 5539 5532 5524 5516 5513 5505 5496 5488 5478 5470 5459 5453 5446 5438 5432 5424 5417 5409 5399 5389 5383 5377 5372 5364 5356 5349 5341 5336
5538 5543 5549 5552 5555 5557 5561 5563 5555 5555 5555 5549 5541 5533 5529 5517 5511 5508 5498 5488 5484 5475 5467 5463 5451 5442 5435 5428 5420 5414 5405 5396 5389 5379 5373 5365 5359 5351 5344 5339 5330 5320 5309
5514 5517 5523 5528 5531 5533 5536 5537 5533 5535 5533 5526 5519 5510 5509 5499 5484 5478 5471 5460 5458 5454 5457 5444 5433 5417 5410 5399 5392 5389 5381 5374 5366 5363 5357 5350 5342 5334 5326 5316 5304 5293 5281
5490 5494 5499 5506 5511 5516 5514 5516 5515 5517 5516 5507 5496 5484 5488 5478 5457 5457 5447 5436 5433 5432 5426 5413 5404 5392 5384 5376 5371 5364 5357 5352 5347 5345 5336 5326 5317 5307 5299 5288 5276 5263 5250